Flag for U.S.A. Weather past 2 weeks in Inverness, Florida, U.S.A.

Now
79 °F

Fog.


Feels Like: 83 °F
Forecast: 76 / 86 °F
Wind: 8 mph from Southwest

Location: The Villages

Current Time: Aug 4, 2015 at 12:16:05 AM

Latest Report: Aug 3, 2015 at 11:15 PM


Visibility: 6 mi

Pressure: 29.89 "Hg

Humidity: 100%

Dew point: 79 °F

Location of InvernessLocation

Historic Weather in Inverness — Graph

°F

Inverness temperature yesterday

Maximum temperature yesterday: 81 °F (at 3:55 PM)
Minimum temperature yesterday: 73 °F (at 9:15 AM)
Average temperature yesterday: 77 °F

Past Weeks' High & Low Weather Summary

 TemperatureHumidityPressure
High95 °F (Jul 29, 2:55 PM)100% (Jul 19, 10:15 PM)29.95 "Hg (Jul 19, 10:15 PM)
Low73 °F (Jul 29, 2:50 AM)100% (Jul 19, 10:15 PM)29.74 "Hg (Aug 3, 2:35 AM)
Average80 °F100%29.85 "Hg
* Reported Jul 19 10:15 PM — Aug 3 10:55 PM, Inverness, Weather by CustomWeather, © 2015

Note: Actual official high and low records may vary slightly from our data, if they occured in-between our weather recording intervals... More about our weather records

Advertising

Inverness weather history for previous 24 hours

 ConditionsComfort  
Time TempWeatherWind HumidityBarometerVisibility
10:55 PM
Mon, Aug 3
79 °FWarm.No wind100%29.90 "Hg10 mi
10:35 PM79 °FWarm.5 mph100%29.89 "Hg10 mi
10:15 PM79 °FFog.5 mph100%29.88 "Hg6 mi
9:55 PM79 °FWarm.5 mph100%29.87 "HgN/A
9:35 PM79 °FWarm.7 mph100%29.86 "Hg10 mi
9:15 PM79 °FWarm.6 mph100%29.86 "Hg10 mi
8:55 PM79 °FWarm.7 mph100%29.85 "Hg10 mi
8:35 PM79 °FWarm.7 mph100%29.85 "Hg10 mi
8:15 PM79 °FWarm.6 mph100%29.85 "Hg10 mi
7:35 PM81 °FWarm.9 mph100%29.84 "Hg10 mi
7:15 PM81 °FWarm.8 mph100%29.85 "Hg10 mi
6:55 PM81 °FWarm.7 mph100%29.84 "Hg10 mi
6:35 PM81 °FWarm.8 mph100%29.83 "Hg10 mi
5:15 PM81 °FFog.14 mph100%29.83 "Hg6 mi
4:55 PM79 °FWarm.13 mph100%29.83 "Hg7 mi
4:35 PM81 °FWarm.13 mph100%29.84 "Hg10 mi
4:15 PM81 °FWarm.15 mph100%29.84 "Hg10 mi
3:55 PM81 °FWarm.15 mph100%29.84 "Hg7 mi
3:30 PM79 °FWarm.12 mph100%29.84 "Hg9 mi
3:10 PM77 °FWarm.13 mph100%29.84 "Hg10 mi
2:55 PM77 °FWarm.9 mph100%29.84 "Hg10 mi
2:35 PM75 °FMild.15 mph100%29.84 "Hg10 mi
2:15 PM75 °FMild.10 mph100%29.84 "Hg10 mi
1:55 PM73 °FFog.14 mph100%29.85 "Hg6 mi
1:35 PM73 °FMild.12 mph100%29.85 "Hg9 mi
1:15 PM75 °FMild.9 mph100%29.84 "HgN/A
12:50 PM75 °FFog.10 mph100%29.84 "Hg6 mi
12:30 PM75 °FMild.7 mph100%29.85 "Hg8 mi
12:10 PM75 °FFog.10 mph100%29.86 "Hg4 mi
11:50 AM75 °FMild.7 mph100%29.86 "Hg7 mi
11:35 AM75 °FMild.8 mph100%29.86 "Hg7 mi
11:15 AM75 °FMild.10 mph100%29.85 "Hg10 mi
10:50 AM75 °FMild.10 mph100%29.85 "Hg10 mi
10:35 AM73 °FMild.9 mph100%29.85 "Hg7 mi
10:15 AM73 °FMild.10 mph100%29.84 "Hg9 mi
9:55 AM73 °FFog.14 mph100%29.83 "Hg5 mi
9:30 AM73 °FMild.10 mph100%29.82 "Hg8 mi
9:15 AM73 °FFog.12 mph100%29.82 "Hg2 mi
8:55 AM75 °FMild.9 mph100%29.81 "Hg8 mi
8:15 AM75 °FFog.10 mph100%29.80 "Hg5 mi
7:55 AM75 °FFog.12 mph100%29.80 "Hg3 mi
7:30 AM75 °FFog.15 mph100%29.79 "Hg2 mi
7:15 AM75 °FFog.10 mph100%29.78 "Hg3 mi
6:55 AM75 °FMild.10 mph100%29.77 "Hg9 mi
6:35 AM75 °FFog.13 mph100%29.77 "Hg5 mi
6:15 AM77 °FFog.10 mph100%29.77 "Hg4 mi
5:55 AM77 °FWarm.12 mph100%29.76 "Hg10 mi
5:15 AM77 °FFog.12 mph100%29.75 "Hg6 mi
4:55 AM77 °FWarm.10 mph100%29.75 "Hg7 mi
4:15 AM77 °FWarm.13 mph100%29.76 "Hg8 mi
3:55 AM77 °FWarm.10 mph100%29.75 "Hg9 mi
3:15 AM77 °FWarm.10 mph100%29.75 "Hg10 mi
2:55 AM77 °FWarm.9 mph100%29.75 "Hg9 mi
2:35 AM77 °FWarm.9 mph100%29.74 "Hg10 mi
2:10 AM77 °FWarm.10 mph100%29.77 "Hg7 mi
1:55 AM77 °FWarm.10 mph100%29.77 "Hg10 mi
1:35 AM77 °FWarm.10 mph100%29.79 "Hg10 mi
1:15 AM77 °FWarm.12 mph100%29.80 "Hg10 mi
12:55 AM79 °FWarm.10 mph100%29.81 "Hg10 mi
Weather by CustomWeather, © 2015

See weather overviewHow to use our weather pages